Location: *
(30.4476°N, 114.3798°E)
Time: 03:49:52
(UTC+00:00)

Cosmos 1674 Rocket - Pass Details

Date: 09 April 2020
Orbit: 603 x 629 km, 82.5° (Epoch: 31 May)

Event Time Altitude Azimuth Distance (km) Brightness Sun altitude
Exits shadow 19:48:11 49° 94° (E) 799 4.3 -27.8°
Maximum altitude 19:48:13 49° 93° (E) 799 4.3 -27.8°
Drops below altitude 10° 19:52:26 10° 18° (NNE) 1,980 6.7 -27.0°
Sets 19:54:42 0° 13° (NNE) 2,884 7.6 -26.5°
